Location: Tel Aviv
(32.0670°N, 34.7670°E)
Time: 06:29:40
(UTC+02:00)

Vanguard 1 - Visible Passes

Search period start: 29 November 2023 00:00
Search period end: 09 December 2023 00:00
Orbit: 651 x 3828 km, 34.3° (Epoch: 27 November)

Date Brightness Start Highest point End Pass type
(mag) Time Alt. Az. Time Alt. Az. Time Alt. Az.
29 Nov 12.8 02:41:45 25° S 02:41:45 25° S 02:45:53 10° SSE visible
29 Nov 12.9 16:55:50 10° SSW 17:10:16 52° SE 17:30:34 13° ENE visible
29 Nov 12.7 19:16:35 10° WSW 19:35:59 88° SSE 19:43:12 59° ENE visible
29 Nov 13.1 21:41:34 10° W 21:55:52 51° WNW 21:55:52 51° WNW visible
30 Nov13.700:48:31SE00:48:31SE00:08:31WNWvisible
30 Nov 12.9 03:01:12 21° SSW 03:01:12 21° SSW 03:05:00 10° S visible
30 Nov 12.7 17:15:47 10° SW 17:30:45 63° SE 17:49:43 18° ENE visible
30 Nov 12.6 19:37:26 10° WSW 19:57:24 88° NNW 20:02:22 68° ENE visible
30 Nov 13.3 22:02:50 10° W 22:15:01 43° WNW 22:15:01 43° WNW visible
01 Dec13.601:07:56SE01:07:56SE00:27:41WNWvisible
01 Dec 13.1 03:20:37 16° SSW 03:20:37 16° SSW 03:23:25 10° S visible
01 Dec 12.7 17:35:59 10° SW 17:51:27 72° SSE 18:08:51 23° ENE visible
01 Dec 12.6 19:58:25 10° W 20:18:55 85° N 20:21:30 77° ENE visible
01 Dec 13.5 22:24:06 10° WNW 22:34:10 36° WNW 22:34:10 36° WNW visible
02 Dec 13.5 01:27:19 11° SSE 01:27:19 11° SSE 01:27:41 10° SSE visible
02 Dec 13.3 03:40:00 10° SSW 03:40:00 10° SSW 03:40:17 10° SSW visible
02 Dec 12.6 17:56:24 10° WSW 18:12:24 81° SSE 18:27:59 29° ENE visible
02 Dec 12.6 20:19:29 10° W 20:40:30 84° N 20:40:38 84° N visible
02 Dec 13.7 22:45:20 10° WNW 22:53:17 30° WNW 22:53:17 30° WNW visible
03 Dec 13.5 01:46:39 12° SSE 01:46:39 12° SSE 01:47:17 10° SSE visible
03 Dec 12.6 18:17:00 10° WSW 18:33:32 88° SSE 18:47:06 35° ENE visible
03 Dec 12.7 20:40:34 10° W 20:59:45 78° WNW 20:59:45 78° WNW visible
03 Dec 13.8 23:06:35 10° WNW 23:12:25 23° WNW 23:12:25 23° WNW visible
04 Dec 13.5 02:05:56 11° S 02:05:56 11° S 02:06:26 10° S visible
04 Dec 12.6 18:37:45 10° WSW 18:54:50 87° N 19:06:14 42° ENE visible
04 Dec 12.8 21:01:40 10° W 21:18:53 69° WNW 21:18:53 69° WNW visible
04 Dec 14.0 23:27:52 10° WNW 23:31:32 18° WNW 23:31:32 18° WNW visible
05 Dec 12.5 16:37:11 10° SW 16:49:56 71° SSE 17:11:47 10° ENE visible
05 Dec 12.6 18:58:35 10° W 19:16:16 84° N 19:25:22 50° E visible
05 Dec 13.0 21:22:45 10° WNW 21:38:01 59° WNW 21:38:01 59° WNW visible
05 Dec 14.1 23:49:17 10° WNW 00:31:40 - SE 23:50:40 13° WNW visible
06 Dec 12.5 16:57:32 10° WSW 17:10:45 81° SSE 17:31:52 13° ENE visible
06 Dec 12.6 19:19:29 10° W 19:37:45 84° N 19:44:30 59° E visible
06 Dec 13.1 21:43:49 10° WNW 21:57:09 50° W 21:57:09 50° W visible
07 Dec14.000:50:48SSE00:50:48SSE00:09:49WNWvisible
07 Dec 12.4 17:18:03 10° WSW 17:31:45 88° SSE 17:51:01 18° ENE visible
07 Dec 12.6 19:40:24 10° W 19:59:16 85° N 20:03:41 69° E visible
07 Dec 13.3 22:04:54 10° WNW 22:16:20 42° W 22:16:20 42° W visible
08 Dec14.001:09:51SSE01:09:51SSE00:28:59WNWvisible
08 Dec 12.5 17:38:42 10° W 17:52:56 87° N 18:10:14 23° E visible
08 Dec 12.6 20:01:20 10° W 20:20:43 88° NNE 20:22:53 80° E visible
08 Dec 13.5 22:26:03 10° WNW 22:35:33 34° W 22:35:33 34° W visible
